Location: Stoke Bliss
(52.2667°N, 2.5167°W)
Time: 14:42:38
(UTC+00:00)

Terra - Pass Details

Date: 03 March 2021
Orbit: 701 x 703 km, 98.2° (Epoch: 13 April)

Event Time Altitude Azimuth Distance (km) Brightness Sun altitude
Exits shadow 21:21:34 23° 7° (N) 1,493 3.7 -31.2°
Drops below altitude 10° 21:23:28 10° 356° (N) 2,185 4.8 -31.5°
Sets 21:25:49 0° 350° (N) 3,108 5.7 -31.8°
